STARLINK-35078 (65523 NORAD) Tracking and Keplerian Element Data

This shows tracking and keplerian element data for the satellite.

Feedback or suggestion? Click here.




ElementValue
Catalog65523
NameSTARLINK-35078
Epoch Orbit1713
Epoch Day353.96571692
Epoch Year2025
RAAN61.1921
Inclination97.6028
Eccentricity0.0001075
Argument of Perigee91.3514
Mean Anonmoly268.7836
Mean Motion15.05649274
Decay Rate1.167E-05
L11 65523U 25200D 25353.96571692 .00001167 00000+0 85049-4 0 9997
L22 65523 97.6028 61.1921 0001075 91.3514 268.7836 15.05649274 17136



Live tracking and technical data element details for STARLINK-35078 (NORAD 65523). STARLINK-35078 can be tracked NOW for your location showing map with azimuth and elevation plus other details from your city location.







IsCatalogInMostPopularTable: catalog: 65523, numindb: 10
Update: records affected: 1



GetName: 65523 STARLINK-35078

Hit Count: updated at: Thu, 16 Apr 2026 04:45:30 GMT